Simultaneous Nadir Overpasses (SNOs) Predictions

Prediction of SNOs between METOP-A and TERRA Satellite Orbit:

Table of predicted SNOs for the next 14.0 days since TLE Epoch: 4/24/2021
Index Date (METOP-A) Time (METOP-A) Lat,Lon (METOP-A) SZA (METOP-A ) Date (TERRA) Time (TERRA) Lat,Lon (TERRA) SZA (TERRA ) Distance(km) Time Diff (sec)
1 04/26/2021 09:18:49 81.33, 86.78 70.52 04/26/2021 09:19:47 81.32, 86.70 70.53 1.92 58
2 04/26/2021 10:09:29 -81.33,-105.63 109.47 04/26/2021 10:09:14 -81.32,-105.77 109.50 2.52 15
3 04/29/2021 04:53:10 81.33, 153.30 69.66 04/29/2021 04:53:58 81.34, 153.48 69.71 3.41 48
4 04/29/2021 05:43:51 -81.33, -39.46 110.37 04/29/2021 05:43:26 -81.32, -39.34 110.37 2.61 25
5 05/02/2021 00:27:32 81.32,-140.20 68.82 05/02/2021 00:28:11 81.34,-140.16 68.86 1.81 39
6 05/02/2021 01:18:13 -81.32, 27.08 111.20 05/02/2021 01:17:39 -81.31, 27.05 111.22 1.27 34
7 05/04/2021 20:01:54 81.32, -73.72 68.02 05/04/2021 20:02:24 81.33, -73.84 68.03 2.59 30
8 05/04/2021 20:52:35 -81.32, 93.59 112.00 05/04/2021 20:51:51 -81.33, 93.77 111.99 3.19 44
9 05/07/2021 15:36:16 81.33, -7.64 67.21 05/07/2021 15:36:36 81.32, -7.57 67.23 1.25 20



Historial Predications of SNOs between METOP-A and TERRA
